DW9356 Weather Reports


Display with metric or nautical units.
time (UTC)temp
F
wind
direction
speed
MPH
gust
MPH
rain 1hr
in
rain 24hr
in
rain mn
in
humidity
%
barometer
mb
20260510045838 72 145 0.0 2.0 0.00 0.60 0.60 97 1011.2
20260510045309 72 145 0.0 1.0 0.00 0.60 0.60 97 1011.2
20260510044544 72 146 0.0 1.0 0.00 0.60 0.60 97 1011.2
20260510044233 71 146 0.0 1.0 0.00 0.60 0.60 97 1011.2
20260510043515 72 146 0.0 1.0 0.00 0.60 0.60 96 1011.2
20260510042947 71 146 0.0 1.0 0.00 0.60 0.60 96 1011.2
20260510042706 71 146 0.0 2.0 0.00 0.60 0.60 96 1011.3
20260510041918 71 146 0.0 1.0 0.00 0.60 0.60 96 1011.2
20260510041414 71 146 0.0 0.0 0.00 0.60 0.60 96 1011.2
20260510040848 71 146 0.0 1.0 0.00 0.60 0.60 96 1011.2
20260510040545 71 146 0.0 1.0 0.00 0.60 0.60 96 1011.3
20260510035819 71 146 1.0 2.0 0.00 0.60 0.60 96 1011.0
20260510035251 71 146 1.0 3.0 0.00 0.60 0.60 96 1011.1
20260510035007 72 146 1.0 4.0 0.00 0.60 0.60 96 1011.3
20260510034241 72 146 2.0 7.0 0.00 0.60 0.60 96 1011.4
20260510033739 72 131 1.0 7.0 0.00 0.60 0.60 96 1011.5
20260510033211 72 153 2.0 9.0 0.00 0.60 0.60 96 1011.5
20260510032643 73 144 2.0 9.0 0.00 0.60 0.60 96 1011.3
20260510032140 73 143 3.0 9.0 0.00 0.60 0.60 96 1011.5
20260510031637 74 84 3.0 9.0 0.00 0.60 0.60 96 1011.5
20260510031134 75 75 2.0 9.0 0.00 0.60 0.60 97 1011.4
20260510030608 75 57 2.0 7.0 0.00 0.60 0.60 97 1011.4
20260510030103 75 196 2.0 8.0 0.00 0.60 0.60 97 1011.3
20260510025601 75 106 1.0 5.0 0.00 0.60 0.60 97 1011.3
20260510025033 74 127 2.0 5.0 0.00 0.60 0.60 97 1011.0
20260510024531 73 155 2.0 5.0 0.00 0.60 0.60 97 1010.8
20260510024004 72 127 1.0 4.0 0.00 0.60 0.60 97 1010.6
20260510023437 72 139 0.0 2.0 0.00 0.60 0.60 96 1010.4
20260510022933 71 141 0.0 0.0 0.00 0.60 0.60 96 1010.0
20260510022432 71 0 0.0 0.0 0.00 0.60 0.60 96 1009.9
20260510021928 71 139 0.0 0.0 0.00 0.60 0.60 96 1009.7
20260510021401 71 0 0.0 0.0 0.00 0.60 0.60 95 1009.6
20260510020858 71 0 0.0 0.0 0.01 0.60 0.60 95 1009.5
20260510020332 71 0 0.0 1.0 0.10 0.60 0.60 95 1009.2
20260510015828 70 0 0.0 1.0 0.13 0.60 0.60 95 1009.0
20260510015324 70 0 0.0 1.0 0.15 0.60 0.60 94 1008.9
20260510015046 70 0 0.0 1.0 0.22 0.60 0.60 94 1008.8
20260510014255 70 0 0.0 2.0 0.39 0.60 0.60 94 1008.8
20260510013727 70 0 0.0 2.0 0.60 0.60 0.60 93 1008.7
20260510013224 70 0 0.0 2.0 0.60 0.60 0.60 93 1008.7
20260510012658 71 0 0.0 3.0 0.60 0.60 0.60 92 1008.6
20260510012155 71 0 1.0 3.0 0.60 0.60 0.60 92 1008.7
20260510011628 71 0 1.0 4.0 0.60 0.60 0.60 91 1008.6
20260510011125 71 0 1.0 5.0 0.59 0.59 0.60 91 1008.8
20260510010558 72 0 2.0 5.0 0.57 0.57 0.58 90 1008.9
20260510010540 72 0 2.0 9.0 0.47 0.47 0.47 88 1008.9
20260510005647 75 136 5.0 19.0 0.40 0.40 0.42 80 1009.0
20260510005534 73 0 4.0 9.0 0.45 0.45 0.46 82 1009.2
20260510004903 81 122 4.0 19.0 0.30 0.30 0.30 72 1009.1
20260510003837 85 98 3.0 9.0 0.00 0.00 0.00 70 1008.6
20260510003309 85 281 1.0 5.0 0.00 0.00 0.00 74 1008.0
20260510002806 86 332 0.0 1.0 0.00 0.00 0.00 74 1007.8
20260510002239 86 333 0.0 2.0 0.00 0.00 0.00 76 1007.9
20260510001715 86 333 0.0 1.0 0.00 0.00 0.00 76 1007.8
20260510001409 86 333 0.0 1.0 0.00 0.00 0.00 75 1007.7
20260510000618 87 333 0.0 1.0 0.00 0.00 0.00 75 1007.8
20260510000114 87 333 0.0 1.0 0.00 0.00 0.00 74 1007.6
20260509235548 87 333 0.0 1.0 0.00 0.00 0.00 75 1007.6
20260509235022 87 333 0.0 1.0 0.00 0.00 0.00 74 1007.6
20260509234518 87 333 0.0 1.0 0.00 0.00 0.00 70 1007.6
20260509234005 87 333 0.0 1.0 0.00 0.00 0.00 70 1007.5
20260509233509 88 333 0.0 1.0 0.00 0.00 0.00 72 1007.6
20260509232944 88 333 0.0 1.0 0.00 0.00 0.00 69 1007.7
20260509232417 88 333 0.0 1.0 0.00 0.00 0.00 68 1007.7
20260509231915 89 333 1.0 1.0 0.00 0.00 0.00 70 1007.5
20260509231349 89 333 1.0 1.0 0.00 0.00 0.00 68 1007.5
20260509230822 89 333 0.0 1.0 0.00 0.00 0.00 68 1007.6
20260509230321 89 333 0.0 1.0 0.00 0.00 0.00 65 1007.4
20260509230015 89 333 0.0 2.0 0.00 0.00 0.00 66 1007.4
20260509225230 90 333 0.0 2.0 0.00 0.00 0.00 65 1007.3
20260509224925 91 333 1.0 3.0 0.00 0.00 0.00 65 1007.3
20260509224201 91 333 1.0 3.0 0.00 0.00 0.00 61 1007.3
20260509223639 91 331 1.0 3.0 0.00 0.00 0.00 62 1007.4
20260509223141 91 332 0.0 3.0 0.00 0.00 0.00 64 1007.4
20260509222639 91 331 1.0 4.0 0.00 0.00 0.00 62 1007.3
20260509222140 91 331 2.0 4.0 0.00 0.00 0.00 61 1007.3
20260509221614 91 314 1.0 5.0 0.00 0.00 0.00 61 1007.2
20260509221108 91 333 2.0 5.0 0.00 0.00 0.00 62 1007.3
20260509220605 91 32 2.0 5.0 0.00 0.00 0.00 62 1007.3
20260509220038 91 17 2.0 5.0 0.00 0.00 0.00 62 1007.3
20260509215512 91 316 2.0 5.0 0.00 0.00 0.00 61 1007.3
20260509215231 92 94 1.0 4.0 0.00 0.00 0.00 62 1007.2
20260509214442 92 134 2.0 4.0 0.00 0.00 0.00 63 1007.2
20260509213936 92 102 2.0 4.0 0.00 0.00 0.00 65 1007.3
20260509213431 91 68 2.0 5.0 0.00 0.00 0.00 63 1007.3
20260509212926 91 64 2.0 5.0 0.00 0.00 0.00 63 1007.3
20260509212404 92 288 2.0 4.0 0.00 0.00 0.00 64 1007.3
20260509211903 92 165 2.0 4.0 0.00 0.00 0.00 66 1007.4
20260509211339 91 92 1.0 3.0 0.00 0.00 0.00 66 1007.4
20260509210816 91 173 1.0 5.0 0.00 0.00 0.00 70 1007.5
20260509210250 90 125 1.0 4.0 0.00 0.00 0.00 66 1007.5
20260509205726 90 141 1.0 4.0 0.00 0.00 0.00 67 1007.6
20260509205225 89 309 1.0 3.0 0.00 0.00 0.00 69 1007.7
20260509204918 89 300 1.0 4.0 0.00 0.00 0.00 67 1007.8
20260509204201 89 40 2.0 5.0 0.00 0.00 0.00 66 1007.9
20260509203635 89 340 2.0 5.0 0.00 0.00 0.00 66 1008.0
20260509203107 89 307 2.0 5.0 0.00 0.00 0.00 66 1007.9
20260509202543 88 286 1.0 5.0 0.00 0.00 0.00 67 1008.1
20260509202017 88 211 2.0 3.0 0.00 0.00 0.00 68 1008.2
20260509201515 89 169 2.0 5.0 0.00 0.00 0.00 69 1008.1
20260509200949 89 329 2.0 4.0 0.00 0.00 0.00 66 1008.2
20260509200421 89 228 1.0 4.0 0.00 0.00 0.00 68 1008.3
20260509195921 89 259 1.0 4.0 0.00 0.00 0.00 68 1008.4
20260509195357 89 72 2.0 4.0 0.00 0.00 0.00 70 1008.6
20260509194833 88 319 2.0 4.0 0.00 0.00 0.00 69 1008.5
20260509194334 87 354 2.0 5.0 0.00 0.00 0.00 70 1008.5
20260509193808 87 352 2.0 5.0 0.00 0.00 0.00 71 1008.5
20260509193309 88 285 2.0 7.0 0.00 0.00 0.00 71 1008.6
20260509193017 88 16 2.0 7.0 0.00 0.00 0.00 71 1008.7
20260509192259 88 0 1.0 4.0 0.00 0.00 0.00 72 1008.7
20260509191735 87 262 1.0 4.0 0.00 0.00 0.00 74 1008.8
20260509191234 87 291 1.0 4.0 0.00 0.00 0.00 74 1008.8
20260509190710 86 311 1.0 4.0 0.00 0.00 0.00 76 1008.8
20260509190210 86 261 1.0 5.0 0.00 0.00 0.00 76 1008.8
20260509185640 86 91 1.0 5.0 0.00 0.00 0.00 75 1008.9
20260509185139 87 165 2.0 5.0 0.00 0.00 0.00 74 1009.1
20260509184629 87 149 2.0 5.0 0.00 0.00 0.00 76 1009.2
20260509184126 87 230 1.0 3.0 0.00 0.00 0.00 76 1009.2
20260509184114 87 276 1.0 3.0 0.00 0.00 0.00 73 1009.3
20260509183105 86 175 1.0 3.0 0.00 0.00 0.00 74 1009.4
20260509182822 87 191 1.0 3.0 0.00 0.00 0.00 74 1009.4
20260509182102 86 174 1.0 5.0 0.00 0.00 0.00 76 1009.4
20260509181832 86 194 2.0 4.0 0.00 0.00 0.00 76 1009.6
20260509181036 86 176 2.0 5.0 0.00 0.00 0.00 77 1009.7
20260509180513 86 184 2.0 5.0 0.00 0.00 0.00 77 1009.8
20260509175951 85 191 2.0 6.0 0.00 0.00 0.00 77 1009.8
20260509175450 85 140 2.0 6.0 0.00 0.00 0.00 77 1009.9
20260509174925 85 263 1.0 4.0 0.00 0.00 0.00 77 1009.9
20260509174422 85 148 1.0 3.0 0.00 0.00 0.00 78 1010.1
20260509173914 85 97 1.0 6.0 0.00 0.00 0.00 79 1010.1
20260509173354 85 143 1.0 6.0 0.00 0.00 0.00 78 1010.1
20260509173118 86 219 1.0 4.0 0.00 0.00 0.00 78 1010.0
20260509172324 86 310 2.0 5.0 0.00 0.00 0.00 79 1009.9
20260509171825 86 139 2.0 6.0 0.00 0.00 0.00 80 1009.8
20260509171302 85 179 2.0 6.0 0.00 0.00 0.00 83 1009.7
20260509170744 83 208 1.0 3.0 0.00 0.00 0.00 83 1009.7
20260509170242 83 305 1.0 5.0 0.00 0.00 0.00 80 1009.7
20260509165743 83 306 1.0 5.0 0.00 0.00 0.00 83 1009.8
20260509165215 83 139 1.0 6.0 0.00 0.00 0.00 85 1010.0
20260509164652 82 116 1.0 6.0 0.00 0.00 0.00 85 1010.0
20260509164414 82 173 2.0 6.0 0.00 0.00 0.00 87 1010.0
20260509163631 81 176 2.0 6.0 0.00 0.00 0.00 87 1009.8
20260509163131 81 167 2.0 5.0 0.00 0.00 0.00 87 1009.8
20260509162612 80 175 1.0 4.0 0.00 0.00 0.00 88 1010.0
20260509162109 80 153 1.0 3.0 0.00 0.00 0.00 88 1010.0
20260509161610 80 303 0.0 2.0 0.00 0.00 0.00 89 1010.0
20260509161111 79 303 0.0 2.0 0.00 0.00 0.00 89 1010.1
20260509160608 79 304 1.0 3.0 0.00 0.00 0.00 89 1010.2
20260509160324 79 303 1.0 3.0 0.00 0.00 0.00 89 1010.3
20260509155556 79 305 0.0 2.0 0.00 0.00 0.00 90 1010.4
20260509155029 79 304 0.0 2.0 0.00 0.00 0.00 90 1010.5
20260509154508 79 304 0.0 1.0 0.00 0.00 0.00 91 1010.5
20260509153942 78 304 0.0 1.0 0.00 0.00 0.00 91 1010.6
20260509153417 78 304 0.0 1.0 0.00 0.00 0.00 92 1010.6
20260509152910 78 304 0.0 1.0 0.00 0.00 0.00 92 1010.6
20260509152409 78 304 0.0 1.0 0.00 0.00 0.00 93 1010.6
20260509151851 78 304 0.0 1.0 0.00 0.00 0.00 94 1010.5
20260509151352 78 304 0.0 2.0 0.00 0.00 0.00 95 1010.4
20260509150830 78 304 0.0 2.0 0.00 0.00 0.00 95 1010.5
20260509150309 77 304 1.0 2.0 0.00 0.00 0.00 96 1010.3
20260509145747 77 306 0.0 2.0 0.00 0.00 0.00 96 1010.2
20260509145246 77 323 0.0 2.0 0.00 0.00 0.00 97 1010.1
20260509144723 77 311 0.0 2.0 0.00 0.00 0.00 97 1010.0
20260509144157 77 321 0.0 1.0 0.00 0.00 0.00 97 1009.9
20260509143637 76 335 0.0 1.0 0.00 0.00 0.00 98 1009.9
20260509143407 76 338 0.0 1.0 0.00 0.00 0.00 97 1009.8
20260509142624 76 338 0.0 1.0 0.00 0.00 0.00 98 1009.9
20260509142118 76 338 0.0 1.0 0.00 0.00 0.00 97 1009.9
20260509141620 76 338 0.0 1.0 0.00 0.00 0.00 98 1009.8
20260509141058 76 338 0.0 1.0 0.00 0.00 0.00 97 1009.6
20260509140532 76 337 0.0 1.0 0.00 0.00 0.00 98 1009.5
20260509140007 76 337 0.0 1.0 0.00 0.00 0.00 98 1009.7
20260509135445 76 337 0.0 1.0 0.00 0.00 0.00 98 1009.8
20260509134945 75 337 0.0 1.0 0.00 0.00 0.00 98 1009.6
20260509134445 75 337 0.0 1.0 0.00 0.00 0.00 98 1009.8
20260509133937 75 337 0.0 1.0 0.00 0.00 0.00 98 1009.9
20260509133413 75 337 0.0 2.0 0.00 0.00 0.00 98 1010.1
20260509132911 75 338 0.0 2.0 0.00 0.00 0.00 98 1009.9
20260509132412 75 337 1.0 2.0 0.00 0.00 0.00 98 1010.0
20260509131903 75 335 0.0 2.0 0.00 0.00 0.00 98 1010.3
20260509131402 75 336 0.0 1.0 0.00 0.00 0.00 98 1010.4
20260509131126 75 336 0.0 2.0 0.00 0.00 0.00 98 1010.4
20260509130402 75 110 0.0 2.0 0.00 0.00 0.00 98 1010.5
20260509125844 75 110 0.0 1.0 0.00 0.00 0.00 98 1010.5
20260509125346 74 110 0.0 1.0 0.00 0.00 0.00 98 1010.4
20260509124837 74 110 0.0 1.0 0.00 0.00 0.00 98 1010.3
20260509124335 74 110 0.0 0.0 0.00 0.00 0.00 98 1010.4
20260509123834 74 110 0.0 0.0 0.00 0.00 0.00 98 1010.2
20260509123336 74 110 0.0 0.0 0.00 0.00 0.00 98 1010.2
20260509122813 74 110 0.0 0.0 0.00 0.00 0.00 98 1010.2
20260509122253 74 110 0.0 0.0 0.00 0.00 0.00 97 1010.1
20260509121727 74 110 0.0 0.0 0.00 0.00 0.00 98 1009.9
20260509121226 74 110 0.0 1.0 0.00 0.00 0.00 97 1009.8
20260509120728 73 110 0.0 1.0 0.00 0.00 0.00 97 1009.7
20260509120215 73 110 0.0 1.0 0.00 0.00 0.00 97 1009.5
20260509115714 73 110 0.0 1.0 0.00 0.00 0.00 97 1009.4
20260509115212 73 110 0.0 0.0 0.00 0.00 0.00 97 1009.4
20260509114652 73 110 0.0 1.0 0.00 0.00 0.00 97 1009.6
20260509114134 74 110 0.0 1.0 0.00 0.00 0.00 97 1009.7
20260509114111 74 110 0.0 1.0 0.00 0.00 0.00 97 1009.8
20260509113056 74 110 0.0 2.0 0.00 0.00 0.00 97 1009.9
20260509112814 74 110 0.0 2.0 0.00 0.00 0.00 97 1009.7
20260509112056 74 110 0.0 1.0 0.00 0.00 0.00 97 1009.7
20260509111558 74 110 0.0 0.0 0.00 0.00 0.00 97 1009.9
20260509111052 74 110 0.0 0.0 0.00 0.00 0.00 97 1010.0
20260509110539 74 110 0.0 0.0 0.00 0.00 0.00 97 1010.1
20260509110239 74 110 0.0 2.0 0.00 0.00 0.00 97 1010.1
20260509105955 74 110 0.0 2.0 0.00 0.00 0.00 97 1009.9
20260509105008 74 110 1.0 2.0 0.00 0.00 0.00 97 1009.9
20260509104452 74 110 1.0 2.0 0.00 0.00 0.00 97 1009.9
20260509103932 74 116 0.0 2.0 0.00 0.00 0.00 97 1009.9
20260509103412 74 141 0.0 0.0 0.00 0.00 0.00 97 1009.8
20260509102852 74 141 0.0 0.0 0.00 0.00 0.00 97 1009.7
20260509102554 73 141 0.0 0.0 0.00 0.00 0.00 97 1009.5
20260509101814 73 141 0.0 0.0 0.00 0.00 0.00 97 1009.4
20260509101248 74 141 0.0 0.0 0.00 0.00 0.00 97 1009.4
20260509100723 74 141 0.0 0.0 0.00 0.00 0.00 97 1009.1
20260509100200 74 141 0.0 0.0 0.00 0.00 0.00 97 1008.9
20260509095639 74 141 0.0 0.0 0.00 0.00 0.00 97 1008.8
20260509095124 73 141 0.0 0.0 0.00 0.00 0.00 97 1008.7
20260509094604 73 141 0.0 0.0 0.00 0.00 0.00 97 1008.7
20260509094044 74 141 0.0 0.0 0.00 0.00 0.00 97 1008.7
20260509093523 74 141 0.0 0.0 0.00 0.00 0.00 97 1009.0
20260509093002 74 141 0.0 0.0 0.00 0.00 0.00 97 1009.2
20260509092734 74 141 0.0 0.0 0.00 0.00 0.00 97 1009.3
20260509091943 74 141 0.0 0.0 0.00 0.00 0.00 97 1009.4
20260509091419 74 141 0.0 0.0 0.00 0.00 0.00 97 1009.4
20260509090900 74 141 0.0 0.0 0.00 0.00 0.00 97 1009.5
20260509090346 74 141 0.0 0.0 0.00 0.00 0.00 97 1009.4
20260509090315 74 141 0.0 0.0 0.00 0.00 0.00 97 1009.4
20260509085310 74 141 0.0 1.0 0.00 0.00 0.00 97 1009.4
20260509085033 74 141 0.0 1.0 0.00 0.00 0.00 97 1009.4
20260509084304 74 141 0.0 1.0 0.00 0.00 0.00 97 1009.5
20260509083804 74 141 0.0 1.0 0.00 0.00 0.00 97 1009.6
20260509083247 74 141 0.0 1.0 0.00 0.00 0.00 97 1009.6
20260509082939 74 141 0.0 1.0 0.00 0.00 0.00 97 1009.6
20260509082221 74 141 0.0 1.0 0.00 0.00 0.00 97 1009.6
20260509081709 74 141 0.0 1.0 0.00 0.00 0.00 97 1009.5
20260509081211 74 141 0.0 2.0 0.00 0.00 0.00 97 1009.3
20260509080648 74 141 0.0 2.0 0.00 0.00 0.00 97 1009.2
20260509080147 74 141 0.0 2.0 0.00 0.00 0.00 96 1009.2
20260509075647 74 141 0.0 2.0 0.00 0.00 0.00 97 1009.2
20260509075125 74 141 0.0 2.0 0.00 0.00 0.00 97 1009.2
20260509074626 74 141 0.0 2.0 0.00 0.00 0.00 97 1009.4
20260509074107 74 141 0.0 2.0 0.00 0.00 0.00 97 1009.5
20260509073559 74 141 0.0 2.0 0.00 0.00 0.00 97 1009.4
20260509073301 74 141 0.0 2.0 0.00 0.00 0.00 97 1009.4
20260509072543 74 141 1.0 2.0 0.00 0.00 0.00 96 1009.5
20260509072032 74 141 1.0 3.0 0.00 0.00 0.00 96 1009.5
20260509071528 74 141 0.0 3.0 0.00 0.00 0.00 96 1009.4
20260509071249 74 141 0.0 3.0 0.00 0.00 0.00 96 1009.4
20260509070955 74 145 1.0 2.0 0.00 0.00 0.00 96 1009.3
20260509070010 74 145 1.0 3.0 0.00 0.00 0.00 96 1009.3
20260509065734 74 145 1.0 3.0 0.00 0.00 0.00 96 1009.4
20260509065220 74 145 0.0 3.0 0.00 0.00 0.00 96 1009.5
20260509064457 74 145 1.0 3.0 0.00 0.00 0.00 96 1009.6
20260509063954 74 145 1.0 3.0 0.00 0.00 0.00 96 1009.5
20260509063432 74 146 1.0 3.0 0.00 0.00 0.00 96 1009.5
20260509062908 74 148 0.0 2.0 0.00 0.00 0.00 96 1009.7
20260509062346 74 147 0.0 2.0 0.00 0.00 0.00 96 1009.8
20260509061828 74 147 0.0 3.0 0.00 0.00 0.00 96 1009.8
20260509061326 74 148 0.0 3.0 0.00 0.00 0.00 96 1009.9
20260509060824 74 148 0.0 2.0 0.00 0.00 0.00 96 1009.9
20260509060258 74 148 0.0 2.0 0.00 0.00 0.00 96 1010.0
20260509055740 74 148 0.0 2.0 0.00 0.00 0.00 96 1010.0
20260509055216 74 148 1.0 4.0 0.00 0.00 0.00 96 1009.9
20260509054700 74 148 1.0 4.0 0.00 0.00 0.00 96 1010.0
20260509054643 74 141 1.0 4.0 0.00 0.00 0.00 96 1010.0
20260509053950 74 127 1.0 4.0 0.00 0.00 0.00 96 1010.0
20260509053842 74 128 1.0 4.0 0.00 0.00 0.00 96 1010.1
20260509052611 74 150 0.0 4.0 0.00 0.00 0.00 96 1010.0
20260509052046 74 150 1.0 4.0 0.00 0.00 0.00 96 1009.9
20260509051527 74 159 1.0 5.0 0.00 0.00 0.00 96 1009.9
20260509051028 74 143 1.0 5.0 0.00 0.00 0.00 96 1010.0
20260509050512 74 145 1.0 5.0 0.00 0.00 0.00 96 1010.0